FW6045 Weather Reports


Display with metric or nautical units.
time (UTC)temp
F
wind
direction
speed
MPH
gust
MPH
rain 1hr
in
rain 24hr
in
rain mn
in
humidity
%
barometer
mb
20260507043059 50 336 4.0 5.0 0.00 0.45 0.00 72 1014.2
20260507041558 50 339 3.0 5.0 0.00 0.45 0.00 72 1014.3
20260507040111 50 335 4.0 5.0 0.00 0.45 0.00 71 1014.2
20260507034604 51 342 3.0 6.0 0.00 0.48 0.45 70 1014.3
20260507033102 51 355 5.0 8.0 0.00 0.48 0.45 69 1014.2
20260507031559 51 355 4.0 8.0 0.00 0.48 0.45 69 1014.3
20260507030058 51 347 4.0 9.0 0.00 0.48 0.45 69 1014.3
20260507024559 52 343 4.0 10.0 0.00 0.55 0.45 68 1014.4
20260507023058 52 342 5.0 9.0 0.00 0.55 0.45 67 1014.1
20260507021611 53 355 4.0 6.0 0.00 0.55 0.45 65 1014.0
20260507020058 53 5 5.0 9.0 0.00 0.55 0.45 65 1013.9
20260507014600 54 348 4.0 8.0 0.00 0.58 0.45 65 1013.7
20260507013057 54 342 3.0 5.0 0.00 0.58 0.45 64 1013.6
20260507011559 54 329 3.0 5.0 0.00 0.58 0.45 63 1013.7
20260507010059 54 340 3.0 5.0 0.00 0.58 0.45 63 1013.4
20260507004558 55 344 2.0 5.0 0.00 0.58 0.45 63 1013.4
20260507003055 55 325 3.0 9.0 0.00 0.58 0.45 63 1013.3
20260507001605 55 325 4.0 8.0 0.00 0.58 0.45 63 1013.3
20260507000058 56 331 4.0 10.0 0.00 0.58 0.45 62 1013.2
20260506234624 57 320 6.0 10.0 0.00 0.61 0.45 60 1013.0
20260506233057 57 292 6.0 14.0 0.00 0.61 0.45 61 1012.9
20260506231556 57 288 8.0 14.0 0.00 0.61 0.45 62 1012.8
20260506230058 57 313 6.0 14.0 0.00 0.61 0.45 62 1012.6
20260506224556 56 327 5.0 14.0 0.00 0.63 0.45 60 1012.3
20260506223101 57 17 6.0 13.0 0.00 0.63 0.45 58 1012.5
20260506221558 57 338 6.0 15.0 0.00 0.63 0.45 57 1012.5
20260506214557 58 317 7.0 11.0 0.00 0.66 0.45 58 1012.7
20260506213058 58 327 7.0 12.0 0.00 0.66 0.45 59 1012.7
20260506211559 58 340 8.0 12.0 0.00 0.66 0.45 57 1012.5
20260506210057 60 267 7.0 13.0 0.00 0.66 0.45 56 1012.4
20260506204600 58 325 10.0 18.0 0.00 0.82 0.45 58 1012.3
20260506203058 59 332 5.0 11.0 0.00 0.82 0.45 56 1012.1
20260506201600 59 321 7.0 12.0 0.00 0.82 0.45 57 1012.4
20260506200112 59 267 5.0 10.0 0.00 0.82 0.45 57 1012.4
20260506194619 58 282 3.0 9.0 0.00 0.92 0.45 57 1012.4
20260506193058 58 322 4.0 11.0 0.00 0.92 0.45 59 1012.5
20260506191556 58 5 6.0 11.0 0.00 0.92 0.45 57 1012.5
20260506190100 58 312 7.0 14.0 0.00 0.92 0.45 56 1012.0
20260506184610 58 342 3.0 15.0 0.00 1.12 0.45 61 1012.1
20260506183105 57 5 7.0 19.0 0.00 1.12 0.45 59 1012.2
20260506181601 57 5 12.0 16.0 0.00 1.12 0.45 63 1012.1
20260506180057 56 306 7.0 18.0 0.00 1.12 0.45 65 1012.1
20260506174602 55 319 3.0 12.0 0.00 1.12 0.45 63 1012.1
20260506173112 55 330 8.0 13.0 0.00 1.12 0.45 63 1012.5
20260506171600 54 331 8.0 14.0 0.00 1.12 0.45 65 1012.4
20260506170057 54 20 6.0 17.0 0.00 1.12 0.45 64 1012.8
20260506164558 53 333 7.0 16.0 0.00 1.12 0.45 66 1012.6
20260506163059 53 345 9.0 16.0 0.00 1.12 0.45 66 1012.8
20260506161605 53 31 8.0 16.0 0.00 1.12 0.45 66 1013.0
20260506160058 52 5 6.0 18.0 0.00 1.12 0.45 69 1012.6
20260506154557 52 29 9.0 15.0 0.00 1.12 0.45 70 1012.5
20260506153101 52 42 8.0 14.0 0.00 1.12 0.45 69 1012.5
20260506151608 51 326 8.0 16.0 0.00 1.12 0.45 72 1012.2
20260506150106 51 28 4.0 11.0 0.00 1.12 0.45 77 1012.3
20260506144624 50 30 8.0 13.0 0.00 1.12 0.45 75 1012.0
20260506143103 49 327 7.0 14.0 0.00 1.12 0.45 78 1011.8
20260506141559 48 352 9.0 15.0 0.00 1.12 0.45 79 1011.7
20260506140111 48 312 9.0 12.0 0.00 1.12 0.45 83 1011.4
20260506134555 47 333 8.0 14.0 0.00 1.12 0.45 85 1011.1
20260506133059 46 37 7.0 11.0 0.00 1.12 0.45 88 1011.0
20260506131558 45 352 7.0 12.0 0.00 1.12 0.45 90 1011.4
20260506130126 45 321 5.0 10.0 0.00 1.12 0.45 91 1010.9
20260506124556 44 333 4.0 10.0 0.00 1.12 0.45 93 1010.9
20260506123059 44 337 4.0 8.0 0.00 1.12 0.45 94 1010.7
20260506121603 44 304 2.0 5.0 0.00 1.12 0.45 95 1011.0
20260506120100 43 254 1.0 6.0 0.00 1.12 0.45 95 1010.7
20260506114557 43 292 3.0 5.0 0.00 1.12 0.45 94 1010.2
20260506113105 43 319 3.0 6.0 0.00 1.12 0.45 94 1009.9
20260506111557 42 303 2.0 6.0 0.00 1.12 0.45 94 1009.8
20260506110104 42 287 5.0 10.0 0.00 1.12 0.45 93 1009.3
20260506104616 42 355 4.0 8.0 0.00 1.14 0.45 93 1009.1
20260506103059 42 336 5.0 10.0 0.00 1.14 0.45 93 1009.2
20260506101603 43 355 4.0 9.0 0.00 1.14 0.45 92 1008.7
20260506100058 43 339 6.0 10.0 0.00 1.14 0.45 92 1008.6
20260506094600 43 47 7.0 11.0 0.00 1.19 0.45 92 1007.9
20260506093104 43 17 6.0 11.0 0.00 1.19 0.45 92 1008.2
20260506091556 43 17 7.0 12.0 0.00 1.19 0.45 92 1008.1
20260506084559 43 339 8.0 17.0 0.00 1.19 0.45 94 1007.8
20260506083056 43 5 12.0 21.0 0.00 1.19 0.45 94 1007.8
20260506081556 44 5 11.0 24.0 0.00 1.19 0.45 94 1007.3
20260506073104 46 336 10.0 23.0 0.10 1.19 0.45 96 1006.8
20260506071611 47 39 11.0 21.0 0.10 1.19 0.45 96 1006.9
20260506061558 51 12 9.0 15.0 0.18 1.09 0.35 96 1005.7
20260506044603 58 224 8.0 17.0 0.09 0.80 0.06 97 1005.6